FW5428 Weather Reports


Display with metric or nautical units.
time (UTC)temp
F
wind
direction
speed
MPH
gust
MPH
rain 1hr
in
rain 24hr
in
rain mn
in
humidity
%
barometer
mb
20260906214302 50 90 13.0 17.0 0.00 0.00 0.00 58 1028.8
20260906213752 50 135 4.0 17.0 0.00 0.00 0.00 59 1028.7
20260906213243 50 90 10.0 15.0 0.00 0.00 0.00 61 1028.8
20260906212222 50 180 10.0 21.0 0.00 0.00 0.00 60 1028.9
20260906211201 50 135 9.0 18.0 0.00 0.00 0.00 60 1028.8
20260906210652 50 135 8.0 17.0 0.00 0.00 0.00 63 1028.9
20260906205632 50 180 11.0 16.0 0.00 0.00 0.00 60 1028.7
20260906205124 50 180 10.0 17.0 0.00 0.00 0.00 55 1028.8
20260906204611 50 90 11.0 19.0 0.00 0.00 0.00 60 1028.6
20260906203040 49 225 6.0 16.0 0.00 0.00 0.00 63 1028.8
20260906202530 49 225 8.0 17.0 0.00 0.00 0.00 62 1028.8
20260906202020 49 180 14.0 17.0 0.00 0.00 0.00 62 1028.7
20260906201511 50 180 9.0 13.0 0.00 0.00 0.00 61 1029.0
20260906201003 50 180 8.0 17.0 0.00 0.00 0.00 59 1028.7
20260906200449 49 180 10.0 17.0 0.00 0.00 0.00 59 1028.7
20260906195941 49 225 8.0 16.0 0.00 0.00 0.00 61 1028.7
20260906195430 49 225 8.0 16.0 0.00 0.00 0.00 59 1028.6
20260906194919 49 270 12.0 15.0 0.00 0.00 0.00 60 1028.9
20260906194409 49 180 9.0 14.0 0.00 0.00 0.00 61 1028.7
20260906193349 49 225 7.0 20.0 0.00 0.00 0.00 57 1028.6
20260906192840 49 180 10.0 16.0 0.00 0.00 0.00 61 1028.7
20260906192330 49 180 10.0 17.0 0.00 0.00 0.00 59 1028.9
20260906191819 49 225 15.0 21.0 0.00 0.00 0.00 58 1028.8
20260906191310 49 225 12.0 21.0 0.00 0.00 0.00 58 1028.7
20260906190249 49 180 11.0 15.0 0.00 0.00 0.00 59 1028.7
20260906185738 49 225 5.0 15.0 0.00 0.00 0.00 56 1028.8
20260906185228 49 180 9.0 15.0 0.00 0.00 0.00 60 1028.8
20260906184720 49 180 7.0 15.0 0.00 0.00 0.00 58 1029.1
20260906184209 49 225 8.0 16.0 0.00 0.00 0.00 56 1028.8
20260906183658 49 225 7.0 16.0 0.00 0.00 0.00 58 1029.0
20260906183148 49 180 9.0 16.0 0.00 0.00 0.00 56 1028.9
20260906182637 49 180 10.0 16.0 0.00 0.00 0.00 56 1029.1
20260906182128 49 225 11.0 18.0 0.00 0.00 0.00 59 1029.0
20260906181619 49 180 11.0 18.0 0.00 0.00 0.00 60 1029.1
20260906181113 49 180 12.0 16.0 0.00 0.00 0.00 59 1029.1
20260906180557 49 180 11.0 16.0 0.00 0.00 0.00 57 1029.3
20260906180048 48 225 6.0 14.0 0.00 0.00 0.00 56 1029.3
20260906174522 48 225 6.0 15.0 0.00 0.00 0.00 60 1029.5
20260906174006 48 180 9.0 18.0 0.00 0.00 0.00 58 1029.7
20260906173457 48 270 8.0 20.0 0.00 0.00 0.00 61 1029.7
20260906172947 48 180 12.0 20.0 0.00 0.00 0.00 57 1029.8
20260906172436 48 180 16.0 20.0 0.00 0.00 0.00 59 1029.6
20260906171926 48 180 10.0 17.0 0.00 0.00 0.00 58 1030.0
20260906171418 48 180 11.0 18.0 0.00 0.00 0.00 58 1029.9
20260906170908 48 225 9.0 21.0 0.00 0.00 0.00 58 1030.0
20260906170356 48 225 10.0 21.0 0.00 0.00 0.00 60 1030.1
20260906165846 48 180 14.0 20.0 0.00 0.00 0.00 59 1030.2
20260906165338 48 225 8.0 19.0 0.00 0.00 0.00 59 1030.2
20260906164825 47 270 12.0 19.0 0.00 0.00 0.00 60 1030.4
20260906164316 47 180 11.0 24.0 0.00 0.00 0.00 61 1030.3
20260906163806 47 180 11.0 24.0 0.00 0.00 0.00 59 1030.7
20260906163256 47 180 17.0 23.0 0.00 0.00 0.00 60 1030.9
20260906162745 47 180 16.0 22.0 0.00 0.00 0.00 58 1030.7
20260906162237 46 180 12.0 19.0 0.00 0.00 0.00 61 1031.0
20260906161725 46 180 11.0 20.0 0.00 0.00 0.00 60 1031.0
20260906161215 46 180 15.0 20.0 0.00 0.00 0.00 63 1031.0
20260906160704 46 180 12.0 18.0 0.00 0.00 0.00 60 1031.2
20260906160154 46 225 11.0 17.0 0.00 0.00 0.00 63 1031.1
20260906155135 46 180 14.0 20.0 0.00 0.00 0.00 62 1031.5
20260906154113 46 180 9.0 23.0 0.00 0.00 0.00 59 1031.5
20260906153604 46 225 11.0 23.0 0.00 0.00 0.00 59 1031.7
20260906153054 46 180 11.0 21.0 0.00 0.00 0.00 60 1031.8
20260906152544 46 225 13.0 19.0 0.00 0.00 0.00 59 1031.8
20260906152033 46 180 13.0 16.0 0.00 0.00 0.00 63 1032.1
20260906151523 46 180 10.0 16.0 0.00 0.00 0.00 59 1031.9
20260906151015 46 180 11.0 17.0 0.00 0.00 0.00 59 1032.1
20260906150504 46 180 9.0 19.0 0.00 0.00 0.00 62 1032.0
20260906145953 46 180 13.0 19.0 0.00 0.00 0.00 60 1032.0
20260906144933 46 180 8.0 16.0 0.00 0.00 0.00 58 1032.4
20260906144422 46 180 11.0 16.0 0.00 0.00 0.00 64 1032.4
20260906143912 46 180 10.0 16.0 0.00 0.00 0.00 59 1032.4
20260906143403 46 180 11.0 16.0 0.00 0.00 0.00 61 1032.5
20260906142852 45 180 13.0 17.0 0.00 0.00 0.00 61 1032.6
20260906142342 45 180 8.0 21.0 0.00 0.00 0.00 58 1032.6
20260906141832 45 180 14.0 21.0 0.00 0.00 0.00 60 1032.6
20260906141322 45 180 16.0 21.0 0.00 0.00 0.00 62 1032.8
20260906140812 45 180 11.0 17.0 0.00 0.00 0.00 64 1032.7
20260906140301 45 225 9.0 21.0 0.00 0.00 0.00 61 1032.6
20260906134731 45 180 15.0 19.0 0.00 0.00 0.00 63 1032.8
20260906134221 45 180 14.0 19.0 0.00 0.00 0.00 60 1032.7
20260906133711 45 180 11.0 22.0 0.00 0.00 0.00 62 1032.8
20260906132651 45 180 7.0 19.0 0.00 0.00 0.00 62 1032.8
20260906132141 45 180 11.0 19.0 0.00 0.00 0.00 62 1032.8
20260906131120 45 180 9.0 20.0 0.00 0.00 0.00 62 1032.9
20260906130611 45 135 12.0 21.0 0.00 0.00 0.00 63 1032.9
20260906125551 45 135 12.0 21.0 0.00 0.00 0.00 64 1032.7
20260906125040 45 180 12.0 23.0 0.00 0.00 0.00 65 1032.8
20260906124020 45 180 10.0 20.0 0.00 0.00 0.00 68 1032.6
20260906123510 45 135 13.0 20.0 0.00 0.00 0.00 69 1032.7
20260906122449 44 225 9.0 22.0 0.00 0.00 0.00 68 1032.6
20260906121939 44 135 16.0 23.0 0.00 0.00 0.00 70 1032.6
20260906121430 44 135 11.0 23.0 0.00 0.00 0.00 70 1032.4
20260906120920 44 135 15.0 23.0 0.00 0.00 0.00 71 1032.5
20260906120409 44 135 15.0 23.0 0.00 0.00 0.00 71 1032.4
20260906115911 44 135 11.0 21.0 0.00 0.00 0.00 70 1032.4
20260906115349 44 135 13.0 21.0 0.00 0.00 0.00 72 1032.4
20260906114838 44 135 11.0 21.0 0.00 0.00 0.00 71 1032.4
20260906114329 44 135 13.0 19.0 0.00 0.00 0.00 71 1032.1
20260906113818 44 135 13.0 20.0 0.00 0.00 0.00 73 1032.3
20260906113308 44 180 14.0 21.0 0.00 0.00 0.00 72 1032.0
20260906112759 44 135 13.0 21.0 0.00 0.00 0.00 72 1032.3
20260906112248 44 180 12.0 21.0 0.00 0.00 0.00 75 1032.0
20260906111738 44 135 15.0 21.0 0.00 0.00 0.00 75 1032.1
20260906111228 44 135 11.0 21.0 0.00 0.00 0.00 76 1031.8
20260906110718 44 135 14.0 22.0 0.00 0.00 0.00 75 1031.9
20260906110208 43 135 15.0 23.0 0.00 0.00 0.00 77 1031.9
20260906105657 43 135 14.0 24.0 0.00 0.00 0.00 78 1031.6
20260906104637 43 225 15.0 23.0 0.00 0.00 0.00 80 1031.8
20260906104127 43 180 14.0 23.0 0.00 0.00 0.00 81 1031.7
20260906103617 43 180 16.0 24.0 0.00 0.00 0.00 81 1031.4
20260906103108 43 270 13.0 24.0 0.00 0.00 0.00 80 1031.2
20260906102557 43 135 18.0 24.0 0.00 0.00 0.00 80 1031.3
20260906102047 43 135 13.0 25.0 0.00 0.00 0.00 80 1031.5
20260906101536 43 180 15.0 25.0 0.00 0.00 0.00 79 1031.4
20260906101026 43 225 10.0 23.0 0.00 0.00 0.00 81 1031.2
20260906100517 43 180 14.0 22.0 0.00 0.00 0.00 80 1031.5
20260906100007 43 180 13.0 26.0 0.00 0.00 0.00 82 1031.1
20260906095456 43 180 10.0 26.0 0.00 0.00 0.00 81 1031.3
20260906094947 43 135 18.0 26.0 0.00 0.00 0.00 80 1031.1
20260906094433 43 180 14.0 28.0 0.00 0.00 0.00 81 1031.1
20260906093926 44 135 15.0 28.0 0.00 0.00 0.00 81 1031.1
20260906092906 44 180 15.0 28.0 0.00 0.00 0.00 82 1031.0
20260906092356 44 135 19.0 30.0 0.00 0.00 0.00 82 1030.7
20260906091845 44 180 23.0 30.0 0.00 0.00 0.00 80 1030.7
20260906090832 44 135 18.0 29.0 0.00 0.00 0.00 80 1030.6
20260906085805 44 180 17.0 30.0 0.00 0.00 0.00 81 1030.3
20260906085255 44 225 19.0 27.0 0.00 0.00 0.00 82 1030.3
20260906084744 44 135 14.0 27.0 0.00 0.00 0.00 83 1030.4
20260906084234 44 180 21.0 27.0 0.00 0.00 0.00 83 1030.1
20260906083725 44 180 18.0 28.0 0.00 0.00 0.00 83 1030.1
20260906083215 44 180 23.0 28.0 0.00 0.00 0.00 82 1030.0
20260906082709 44 180 18.0 25.0 0.00 0.00 0.00 82 1030.1
20260906082214 44 135 21.0 27.0 0.00 0.00 0.00 84 1030.2
20260906081644 44 180 19.0 27.0 0.00 0.00 0.00 85 1030.1
20260906081134 44 135 18.0 26.0 0.00 0.00 0.00 86 1029.8
20260906080623 44 180 19.0 26.0 0.00 0.00 0.00 85 1030.0
20260906080114 44 180 14.0 26.0 0.00 0.00 0.00 85 1030.0
20260906075603 44 180 15.0 24.0 0.00 0.00 0.00 85 1030.1
20260906075053 45 135 15.0 24.0 0.00 0.00 0.00 86 1030.0
20260906074544 45 135 15.0 24.0 0.00 0.00 0.00 85 1030.0
20260906074033 45 135 20.0 27.0 0.00 0.00 0.00 84 1030.0
20260906073523 45 180 17.0 28.0 0.00 0.00 0.00 85 1029.8
20260906073013 46 180 17.0 28.0 0.00 0.00 0.00 85 1030.0
20260906072504 46 180 21.0 26.0 0.00 0.00 0.00 84 1029.9
20260906071952 46 180 19.0 27.0 0.00 0.00 0.00 83 1029.8
20260906071442 46 135 16.0 27.0 0.00 0.00 0.00 84 1030.0
20260906070929 46 180 17.0 22.0 0.00 0.00 0.00 84 1029.7
20260906064852 46 180 13.0 20.0 0.00 0.00 0.00 83 1029.8
20260906064342 46 90 11.0 25.0 0.00 0.00 0.00 83 1029.9
20260906063832 46 180 17.0 25.0 0.00 0.00 0.00 81 1029.7
20260906063322 47 180 15.0 23.0 0.00 0.00 0.00 83 1029.8
20260906062811 47 180 15.0 24.0 0.00 0.00 0.00 82 1029.8
20260906061752 47 180 17.0 26.0 0.00 0.00 0.00 83 1029.8
20260906061241 47 180 19.0 23.0 0.00 0.00 0.00 81 1029.9
20260906060732 47 180 19.0 0.0 0.00 0.00 0.00 81 1029.7
20260906060145 47 180 20.0 0.0 0.00 0.00 0.00 81 1029.7
20260906055643 46 135 21.0 26.0 0.00 0.00 0.00 80 1029.7
20260906055133 46 135 14.0 20.0 0.00 0.00 0.00 87 1029.9
20260906054623 46 180 11.0 15.0 0.00 0.00 0.00 87 1029.7
20260906054113 45 180 9.0 15.0 0.00 0.00 0.00 87 1029.6
20260906053603 45 180 8.0 17.0 0.00 0.00 0.00 87 1029.7
20260906053053 45 270 11.0 17.0 0.00 0.00 0.00 86 1029.9
20260906052542 45 225 11.0 16.0 0.00 0.00 0.00 86 1029.8
20260906051525 45 225 12.0 16.0 0.00 0.00 0.00 86 1029.7
20260906051013 45 225 11.0 16.0 0.00 0.00 0.00 86 1029.7
20260906050502 45 225 9.0 17.0 0.00 0.00 0.00 86 1029.6
20260906045952 46 270 8.0 17.0 0.00 0.00 0.00 86 1029.8
20260906045442 46 225 9.0 15.0 0.00 0.00 0.00 86 1029.8
20260906044939 46 225 8.0 17.0 0.00 0.00 0.00 85 1029.8
20260906044421 46 270 11.0 18.0 0.00 0.00 0.00 85 1029.8
20260906043911 46 270 16.0 18.0 0.00 0.00 0.00 85 1029.7
20260906042851 46 225 11.0 16.0 0.00 0.00 0.00 84 1029.4
20260906042341 46 180 10.0 17.0 0.00 0.00 0.00 85 1029.5
20260906041830 46 225 8.0 17.0 0.00 0.00 0.00 85 1029.6
20260906041324 47 225 9.0 15.0 0.00 0.00 0.00 86 1029.5
20260906040810 47 225 10.0 18.0 0.00 0.00 0.00 86 1029.5
20260906040305 47 180 8.0 20.0 0.00 0.00 0.00 85 1029.4
20260906035751 47 225 15.0 20.0 0.00 0.00 0.00 82 1029.3
20260906035241 48 180 13.0 17.0 0.00 0.00 0.00 85 1029.2
20260906034730 48 180 5.0 22.0 0.00 0.00 0.00 86 1029.2
20260906033200 49 180 17.0 25.0 0.00 0.00 0.00 79 1028.9
20260906032650 49 180 18.0 23.0 0.00 0.00 0.00 79 1028.9
20260906032140 49 135 16.0 27.0 0.00 0.00 0.00 81 1029.0
20260906031629 49 180 18.0 27.0 0.00 0.00 0.00 79 1028.9
20260906031119 49 180 19.0 26.0 0.00 0.00 0.00 80 1028.8
20260906030609 49 180 15.0 26.0 0.00 0.00 0.00 81 1028.7
20260906030100 49 180 21.0 27.0 0.00 0.00 0.00 80 1028.7
20260906025549 49 180 21.0 29.0 0.00 0.00 0.00 78 1028.6
20260906025039 49 180 17.0 29.0 0.00 0.00 0.00 79 1028.5
20260906024529 49 180 18.0 23.0 0.00 0.00 0.00 79 1028.5
20260906024018 49 180 11.0 22.0 0.00 0.00 0.00 80 1028.3
20260906023508 49 180 16.0 21.0 0.00 0.00 0.00 81 1028.5
20260906022959 49 180 17.0 21.0 0.00 0.00 0.00 81 1028.3
20260906022449 49 180 16.0 20.0 0.00 0.00 0.00 81 1028.2
20260906021938 49 225 15.0 20.0 0.00 0.00 0.00 81 1028.2
20260906021428 49 180 15.0 21.0 0.00 0.00 0.00 82 1028.2
20260906020927 49 135 16.0 21.0 0.00 0.00 0.00 80 1028.2
20260906020408 49 180 15.0 23.0 0.00 0.00 0.00 81 1027.9
20260906015857 49 180 18.0 25.0 0.00 0.00 0.00 81 1027.9
20260906014327 49 180 23.0 28.0 0.00 0.00 0.00 78 1027.7
20260906013818 49 180 18.0 29.0 0.00 0.00 0.00 79 1027.6
20260906013307 49 135 21.0 29.0 0.00 0.00 0.00 78 1027.5
20260906012758 49 180 20.0 29.0 0.00 0.00 0.00 78 1027.3
20260906012247 50 180 21.0 30.0 0.00 0.00 0.00 78 1027.2
20260906011227 50 180 23.0 30.0 0.00 0.00 0.00 76 1027.2
20260906010716 50 180 21.0 26.0 0.00 0.00 0.00 75 1027.3
20260906010206 50 270 17.0 26.0 0.00 0.00 0.00 73 1026.8
20260906005656 50 270 19.0 27.0 0.00 0.00 0.00 71 1026.9
20260906005147 50 225 16.0 27.0 0.00 0.00 0.00 73 1026.8
20260906004637 50 225 17.0 28.0 0.00 0.00 0.00 70 1026.9
20260906003616 51 225 19.0 28.0 0.00 0.00 0.00 68 1026.4
20260906003106 51 180 17.0 29.0 0.00 0.00 0.00 68 1026.7
20260906002045 51 225 19.0 27.0 0.00 0.00 0.00 68 1026.3
20260906001535 51 270 20.0 27.0 0.00 0.00 0.00 66 1026.2
20260906001025 51 180 16.0 27.0 0.00 0.00 0.00 68 1026.2
20260906000515 51 225 17.0 24.0 0.00 0.00 0.00 66 1026.2
20260906000005 51 270 15.0 24.0 0.00 0.00 0.00 67 1026.3
20260905235455 51 270 15.0 23.0 0.00 0.00 0.00 68 1026.1
20260905234945 51 225 17.0 23.0 0.00 0.00 0.00 69 1026.0
20260905233414 51 225 16.0 24.0 0.00 0.00 0.00 67 1025.7
20260905232904 51 225 21.0 24.0 0.00 0.00 0.00 65 1025.6
20260905232355 51 225 17.0 23.0 0.00 0.00 0.00 66 1025.6
20260905231844 51 225 17.0 23.0 0.00 0.00 0.00 65 1025.6
20260905230823 51 225 17.0 23.0 0.00 0.00 0.00 63 1025.6
20260905225804 51 225 18.0 24.0 0.00 0.00 0.00 62 1025.6
20260905225254 51 225 16.0 24.0 0.00 0.00 0.00 63 1025.4
20260905224743 51 225 20.0 24.0 0.00 0.00 0.00 61 1025.4
20260905224233 51 225 20.0 23.0 0.00 0.00 0.00 59 1025.1
20260905223723 51 225 16.0 24.0 0.00 0.00 0.00 63 1025.1
20260905223213 52 225 14.0 24.0 0.00 0.00 0.00 61 1025.1
20260905222703 52 225 16.0 22.0 0.00 0.00 0.00 61 1024.9
20260905222206 52 225 16.0 23.0 0.00 0.00 0.00 59 1024.9
20260905221643 52 270 15.0 23.0 0.00 0.00 0.00 60 1024.7
20260905221132 53 180 16.0 23.0 0.00 0.00 0.00 59 1024.5
20260905220622 53 225 15.0 23.0 0.00 0.00 0.00 60 1024.6
20260905215602 53 225 20.0 26.0 0.00 0.00 0.00 58 1024.7
20260905215053 53 225 18.0 23.0 0.00 0.00 0.00 55 1024.4